Regional Weather Roundup
Issued by NWS

Home | Current Version | Previous Version | Text Only | Print | Product List | Glossary Off
Versions: 1 2 3 4 5 6 7 8 9 10 11 12 13 14 15 16 17 18 19 20 21 22 23 24 25 26 27 28 29 30 31 32 33 34 35 36 37 38 39 40 41 42 43 44 45 46 47 48 49 50

000
ASUS43 KIND 160709
RWRIN

WEATHER ROUNDUP FOR INDIANA
NATIONAL WEATHER SERVICE INDIANAPOLIS IN
200 AM EST MON JAN 16 2017

NOTE: "FAIR" INDICATES FEW OR NO CLOUDS BELOW 12,000 FEET WITH NO
SIGNIFICANT WEATHER AND/OR OBSTRUCTIONS TO VISIBILITY.

* - STATION DOES NOT REPORT WEATHER SUCH AS PRECIPITATION OR FOG.

+ - STATION NOT QUALITY CONTROLLED BY THE NATIONAL WEATHER SERVICE.
    USE DATA WITH CAUTION...ESPECIALLY DEWPOINT AND RELATIVE
    HUMIDITY OBSERVATIONS.

INZ001>003-010>013-019-020-160800-
NORTHWEST INDIANA

CITY           SKY/WX    TMP DP  RH WIND       PRES   REMARKS
GARY /AIRPORT/ CLOUDY    33  26  76 CALM      30.30S
KNOX *+        CLOUDY    32  12  43 E6        30.28F WCI  26
LA PORTE +     CLOUDY    30  27  86 SE3       30.29F
MICHIGAN CITY+ CLOUDY    32  27  80 CALM      30.30F
MONTICELLO +   CLOUDY    32  29  87 CALM      30.28S
RENSSELAER +     N/A     32  32 100 E3        30.29S
VALPARAISO     CLOUDY    32  28  85 E5        30.29F WCI  27

$$

LMZ046-743>745-160800-
SOUTHERN LAKE MICHIGAN

STATION/POSITION TIME  TEMP    WIND        PRES    WAVE
                       AIR SEA DIR/SP/G            HT
                 (UTC) (F)     (DEG/KT/KT) (MB)    (FT)
BURNS HARBOR     0640   33     130/  5/  9 1026.1F
MICHIGAN CITY    0640   31     120/  5/  6   N/A

$$

INZ004-005-014>016-021>024-160800-
NORTH CENTRAL INDIANA

CITY           SKY/WX    TMP DP  RH WIND       PRES   REMARKS
GOSHEN         CLOUDY    30  23  75 SE5       30.31R WCI  25
LOGANSPORT +   CLOUDY    32  28  86 E5        30.30S WCI  27
PERU/GRISSOM   CLOUDY    32  31  95 E5        30.27S WCI  28
ROCHESTER +    CLOUDY    34  30  86 E3        30.30S
SOUTH BEND     CLOUDY    29  23  78 E5        30.30F WCI  24
WARSAW +       CLOUDY    30  25  80 E3        30.30F

$$

INZ006>009-017-018-025>027-160800-
NORTHEAST INDIANA

CITY           SKY/WX    TMP DP  RH WIND       PRES   REMARKS
ANGOLA *+      CLEAR     25  23  93 CALM      30.30F
AUBURN +       CLOUDY    30  27  86 CALM      30.32S
FORT WAYNE     CLOUDY    31  26  82 E3        30.31F
HUNTINGTON +   CLOUDY    31  28  92 E5        30.30F WCI  26
KENDALLVILLE + CLOUDY    29  25  85 SE5       30.30F WCI  24

$$

INZ028-029-035-036-043>045-051>053-160800-
WEST CENTRAL INDIANA

CITY           SKY/WX    TMP DP  RH WIND       PRES   REMARKS
CRAWFORDSVL +  CLOUDY    32  32 100 E6        30.27S FOG     WCI  26
GREENCASTLE +  CLOUDY    34  34 100 E6        30.26F FOG     WCI  29
LAFAYETTE      CLOUDY    33  31  92 NE5       30.29R WCI  29
TERRE HAUTE    CLOUDY    37  34  89 E6        30.26F FOG

$$

INZ030>032-037>040-046>048-054>057-064-065-160800-
CENTRAL INDIANA

CITY           SKY/WX    TMP DP  RH WIND       PRES   REMARKS
CP ATTERBURY + CLOUDY    36  34  93 E3        30.28F FOG
FISHERS *+     CLOUDY    32  32 100 SE5       30.28F WCI  27
FRANKFORT +    CLOUDY    35  33  92 SE6       30.29S FOG     WCI  30
GREENWOOD *+   CLOUDY    36  35  94 E5        30.28S
INDIANAPOLIS   CLOUDY    35  33  92 E6        30.27S FOG     WCI  30
-EAGLE CREEK   CLOUDY    35  31  85 E6        30.27F WCI  30
KOKOMO +       CLOUDY    32  30  92 E6        30.29S FOG     WCI  26
MARION +       CLOUDY    32  30  93 E5        30.29F FOG     WCI  27
MT COMFORT *+  CLOUDY    34  32  93 E5        30.28S WCI  30
SHELBYVILLE    CLOUDY    37  32  82 E8        30.27F HAZE
ZIONSVILLE +   CLOUDY    32  31  96 SE6       30.28S FOG     WCI  26

$$

INZ033-034-041-042-049-050-058-059-160800-
EAST CENTRAL INDIANA

CITY           SKY/WX    TMP DP  RH WIND       PRES   REMARKS
MUNCIE         CLOUDY    34  31  88 SE6       30.27F FOG     WCI  29

$$

INZ060-061-067>069-081>083-085>088-160800-
SOUTHWEST INDIANA

CITY           SKY/WX    TMP DP  RH WIND       PRES   REMARKS
EVANSVILLE     CLOUDY    41  39  93 E5        30.24F FOG
HUNTINGBURG *+ CLOUDY    39  37  93 E6        30.25S
WASHINGTON +   CLOUDY    39  37  94 E3        30.25S

$$

INZ062-063-066-070>080-084-089>092-160800-
SOUTH CENTRAL AND SOUTHEAST INDIANA

CITY           SKY/WX    TMP DP  RH WIND       PRES   REMARKS
BLOOMINGTON    CLOUDY    37  35  92 E6        30.25F FOG
MADISON *+     CLOUDY    37  37 100 E3        30.28F
NORTH VERNON + CLOUDY   N/A N/A N/A E3        30.28F FOG
SEYMOUR +      CLOUDY    39  37  93 NE5       30.27F FOG

$$




USA.gov is the U.S. government's official web portal to all federal, state and local government web resources and services.